Weather History for Weslaco, TX

Change the Weather History Date:

Monday, December 10, 2012

  Actual Average (KMFE) Record (KMFE)
Temperature  
Mean Temperature 62 °F 63 °F  
Max Temperature 75 °F 73 °F 88 °F (1971)
Min Temperature 49 °F 53 °F 28 °F (1915)
Degree Days  
Heating Degree Days 3 5  
Month to date heating degree days 45  
Since 1 July heating degree days 105  
Cooling Degree Days 0 3  
Month to date cooling degree days 32  
Year to date cooling degree days 4401  
Growing Degree Days 12 (Base 50)    
Moisture  
Dew Point 43 °F    
Average Humidity 55    
Maximum Humidity 91    
Minimum Humidity 23    
Precipitation  
Precipitation 0.00 in 0.04 in 1.66 in (2011)
Month to date precipitation 0.34  
Year to date precipitation 21.35  
Sea Level Pressure  
Sea Level Pressure 29.98 in    
Wind  
Wind Speed 10 mph (North)    
Max Wind Speed 23 mph    
Max Gust Speed 40 mph    
Visibility 9 miles    
Events Rain    
T = Trace of Precipitation, MM = Missing Value Source: NWS Daily Summary

Daily Weather History Graph

Daily Weather History Graph

Search for Another Location

Airport:

Trip Planner

Search our weather history database for the weather conditions in past years. The results will help you decide how hot, cold, wet, or windy it might be!

Date:

Astronomy

Dec. 10, 2012 Rise Set
Actual Time 7:08 AM CST 5:41 PM CST
Civil Twilight 6:43 AM CST 6:06 PM CST
Nautical Twilight 6:14 AM CST 6:34 PM CST
Astronomical Twilight 5:46 AM CST 7:03 PM CST
Moon 4:04 AM CST (12/10) 3:23 PM CST (12/10)
Length of Visible Light 11h 22m
Length of Day
10h 32m
Waning Crescent, 10% of the Moon is Illuminated
Dec 10
Waning Crescent
Dec 13
New
Dec 19
First Quarter
Dec 28
Full
Jan 4
Last Quarter

Hourly Weather History & Observations

Time (CST) Temp. Dew Point Humidity Pressure Visibility Wind Dir Wind Speed Gust Speed Precip Events Conditions
12:15 AM 75.2 °F 69.8 °F 83% 29.80 in 10.0 mi South 10.4 mph - N/A   Unknown
12:35 AM 75.2 °F 69.8 °F 83% 29.80 in 10.0 mi South 10.4 mph - N/A   Unknown
12:55 AM 75.2 °F 69.6 °F 83% 29.80 in 10.0 mi South 9.2 mph - N/A   Unknown
1:15 AM 74.8 °F 69.6 °F 84% 29.80 in 10.0 mi South 9.2 mph - N/A   Unknown
1:35 AM 74.8 °F 69.8 °F 84% 29.80 in 7.0 mi South 11.5 mph - N/A   Unknown
1:55 AM 74.7 °F 69.6 °F 84% 29.79 in 7.0 mi South 9.2 mph - N/A   Unknown
2:15 AM 74.3 °F 69.4 °F 85% 29.78 in 7.0 mi South 9.2 mph 18.4 mph N/A   Unknown
2:55 AM 73.6 °F 69.3 °F 86% 29.79 in 7.0 mi South 5.8 mph - N/A   Unknown
3:15 AM 73.4 °F 69.4 °F 87% 29.78 in 7.0 mi South 9.2 mph - N/A   Unknown
3:35 AM 73.4 °F 69.3 °F 87% 29.78 in 7.0 mi South 10.4 mph - N/A   Unknown
3:55 AM 73.4 °F 69.3 °F 87% 29.78 in 7.0 mi South 11.5 mph 16.1 mph N/A   Unknown
4:15 AM 73.4 °F 69.8 °F 88% 29.78 in 5.0 mi South 11.5 mph 16.1 mph N/A   Mist
4:35 AM 73.4 °F 69.4 °F 87% 29.78 in 5.0 mi South 9.2 mph - N/A   Mist
4:55 AM 73.4 °F 69.4 °F 87% 29.78 in 5.0 mi South 10.4 mph - N/A   Mist
5:15 AM 72.5 °F 69.1 °F 89% 29.78 in 5.0 mi SSW 6.9 mph - N/A   Mist
5:35 AM 72.0 °F 68.9 °F 90% 29.80 in 5.0 mi Calm Calm - N/A   Mist
5:55 AM 71.8 °F 68.5 °F 89% 29.81 in 5.0 mi SW 3.5 mph - N/A   Mist
6:15 AM 70.9 °F 67.6 °F 89% 29.83 in 4.0 mi NW 4.6 mph - N/A   Mist
6:35 AM 70.9 °F 68.2 °F 91% 29.86 in 3.0 mi NW 5.8 mph - N/A   Mist
6:55 AM 71.2 °F 68.2 °F 90% 29.88 in 3.0 mi NW 5.8 mph - N/A   Mist
7:15 AM 71.4 °F 68.2 °F 89% 29.89 in 4.0 mi NW 8.1 mph - N/A   Mist
7:35 AM 71.6 °F 68.0 °F 88% 29.91 in 4.0 mi NNW 11.5 mph - N/A   Mist
7:55 AM 59.7 °F 52.9 °F 78% 29.95 in 7.0 mi North 19.6 mph 33.4 mph N/A Rain Light Rain
8:15 AM 59.5 °F 51.3 °F 74% 29.98 in 7.0 mi North 17.3 mph 31.1 mph N/A   Unknown
8:35 AM 59.5 °F 50.0 °F 71% 29.99 in 10.0 mi North 17.3 mph 26.5 mph N/A   Unknown
8:55 AM 59.4 °F 47.8 °F 66% 30.01 in 10.0 mi North 17.3 mph 28.8 mph N/A   Unknown
9:15 AM 59.2 °F 46.6 °F 63% 30.02 in 10.0 mi North 16.1 mph 28.8 mph N/A   Unknown
9:35 AM 57.7 °F 43.0 °F 58% 30.05 in 10.0 mi North 21.9 mph 40.3 mph N/A   Unknown
9:55 AM 57.6 °F 41.9 °F 56% 30.06 in 10.0 mi North 16.1 mph 28.8 mph N/A   Unknown
10:15 AM 56.7 °F 37.0 °F 48% 30.07 in 10.0 mi North 23.0 mph 31.1 mph N/A   Unknown
10:35 AM 56.1 °F 32.9 °F 41% 30.08 in 10.0 mi North 20.7 mph 27.6 mph N/A   Unknown
10:55 AM 55.0 °F 30.0 °F 38% 30.08 in 10.0 mi North 15.0 mph 33.4 mph N/A   Unknown
11:15 AM 55.0 °F 28.9 °F 37% 30.08 in 10.0 mi North 16.1 mph 25.3 mph N/A   Unknown
11:35 AM 55.4 °F 27.9 °F 35% 30.09 in 10.0 mi North 17.3 mph 23.0 mph N/A   Unknown
11:55 AM 55.4 °F 27.3 °F 34% 30.09 in 10.0 mi North 16.1 mph 24.2 mph N/A   Unknown
12:15 PM 55.4 °F 25.3 °F 31% 30.09 in 10.0 mi North 18.4 mph 24.2 mph N/A   Unknown
12:35 PM 56.3 °F 26.2 °F 32% 30.08 in 10.0 mi North 15.0 mph 20.7 mph N/A   Unknown
12:55 PM 57.7 °F 25.7 °F 29% 30.06 in 10.0 mi North 16.1 mph 24.2 mph N/A   Unknown
1:15 PM 59.2 °F 25.9 °F 28% 30.06 in 10.0 mi North 17.3 mph 24.2 mph N/A   Unknown
1:35 PM 59.2 °F 25.3 °F 27% 30.05 in 10.0 mi North 16.1 mph 27.6 mph N/A   Unknown
1:55 PM 59.4 °F 25.0 °F 27% 30.04 in 10.0 mi North 13.8 mph 24.2 mph N/A   Unknown
2:15 PM 61.0 °F 24.8 °F 25% 30.04 in 10.0 mi North 10.4 mph 20.7 mph N/A   Unknown
2:35 PM 61.3 °F 24.6 °F 25% 30.04 in 10.0 mi North 15.0 mph 23.0 mph N/A   Unknown
2:55 PM 60.4 °F 24.1 °F 25% 30.04 in 10.0 mi North 12.7 mph 17.3 mph N/A   Unknown
3:15 PM 60.6 °F 23.2 °F 24% 30.04 in 10.0 mi North 11.5 mph 20.7 mph N/A   Unknown
3:35 PM 61.0 °F 23.2 °F 24% 30.04 in 10.0 mi North 13.8 mph 17.3 mph N/A   Unknown
3:55 PM 60.8 °F 22.6 °F 23% 30.03 in 10.0 mi NNE 13.8 mph 18.4 mph N/A   Unknown
4:15 PM 60.4 °F 22.5 °F 23% 30.03 in 10.0 mi North 9.2 mph - N/A   Unknown
4:35 PM 60.4 °F 23.0 °F 24% 30.03 in 10.0 mi NNE 10.4 mph - N/A   Unknown
4:55 PM 59.5 °F 23.5 °F 25% 30.04 in 10.0 mi NNE 8.1 mph - N/A   Unknown
5:15 PM 58.5 °F 23.9 °F 26% 30.04 in 10.0 mi NNE 6.9 mph - N/A   Unknown
5:35 PM 57.2 °F 25.5 °F 30% 30.04 in 10.0 mi NNE 4.6 mph - N/A   Unknown
5:55 PM 55.9 °F 26.4 °F 32% 30.04 in 10.0 mi NNE 4.6 mph - N/A   Unknown
6:15 PM 54.9 °F 27.3 °F 35% 30.05 in 10.0 mi NNE 3.5 mph - N/A   Unknown
6:35 PM 54.0 °F 29.3 °F 39% 30.05 in 10.0 mi NNE 3.5 mph - N/A   Unknown
6:55 PM 54.0 °F 28.9 °F 38% 30.05 in 10.0 mi Calm Calm - N/A   Unknown
7:15 PM 53.4 °F 30.0 °F 41% 30.06 in 10.0 mi Calm Calm - N/A   Unknown
7:35 PM 52.5 °F 31.6 °F 45% 30.06 in 10.0 mi Calm Calm - N/A   Unknown
7:55 PM 52.2 °F 32.7 °F 48% 30.08 in 10.0 mi NW 3.5 mph - N/A   Unknown
8:15 PM 53.2 °F 29.8 °F 41% 30.08 in 10.0 mi Calm Calm - N/A   Unknown
8:35 PM 52.0 °F 31.6 °F 46% 30.08 in 10.0 mi NNE 3.5 mph - N/A   Unknown
8:55 PM 52.3 °F 28.9 °F 41% 30.09 in 10.0 mi Calm Calm - N/A   Unknown
9:15 PM 51.8 °F 28.9 °F 41% 30.09 in 10.0 mi Calm Calm - N/A   Unknown
9:35 PM 51.1 °F 30.0 °F 44% 30.10 in 10.0 mi Calm Calm - N/A   Unknown
9:55 PM 51.1 °F 30.9 °F 46% 30.10 in 10.0 mi Calm Calm - N/A   Unknown
10:15 PM 50.4 °F 31.5 °F 48% 30.11 in 10.0 mi Calm Calm - N/A   Unknown
10:35 PM 50.4 °F 32.5 °F 50% 30.11 in 10.0 mi Calm Calm - N/A   Unknown
10:55 PM 49.8 °F 33.3 °F 53% 30.11 in 10.0 mi Calm Calm - N/A   Unknown
11:15 PM 49.6 °F 32.0 °F 51% 30.10 in 10.0 mi Calm Calm - N/A   Unknown
11:35 PM 50.0 °F 32.0 °F 50% 30.09 in 10.0 mi Calm Calm - N/A   Unknown
11:55 PM 49.3 °F 33.8 °F 55% 30.12 in 10.0 mi Calm Calm - N/A   Unknown